Regional Weather Roundup
Issued by NWS

Home | Current Version | Previous Version | Text Only | Print | Product List | Glossary On
Versions: 1 2 3 4 5 6 7 8 9 10 11 12 13 14 15 16 17 18 19 20 21 22 23 24 25 26 27 28 29 30 31 32 33 34 35 36 37 38 39 40 41 42 43 44 45 46 47 48 49 50
000
ASUS43 KOAX 212310
RWRNE

WEATHER ROUNDUP FOR NEBRASKA
NATIONAL WEATHER SERVICE OMAHA NE
500 PM CST SUN JAN 21 2018

NOTES: SATELLITE DATA IS BEING USED TO AUGMENT CLOUD COVER ABOVE
       12000 FEET.
       "FAIR" INDICATES FEW OR NO CLOUDS BELOW 12,000 FEET WITH NO
       SIGNIFICANT WEATHER AND/OR OBSTRUCTIONS TO VISIBILITY.


NEZ001>004-019>022-054>056-220000-
NEBRASKA PANHANDLE

CITY           SKY/WX    TMP DP  RH WIND       PRES   REMARKS
SCOTTSBLUFF    LGT SNOW  29  25  85 N12       29.96R FOG     WCI  19
ALLIANCE       CLOUDY    27  26  96 N23       29.91R FOG     WCI  12
CHADRON        LGT SNOW  29  26  89 NW7       29.99R FOG     WCI  22
GORDON         LGT SNOW  29  26  88 N17       29.92R WCI  17
KIMBALL        LGT SNOW  25  23  93 N25G33    29.88R VSB 1   WCI   9
SIDNEY         LGT SNOW  27  24  89 N24G35    29.86R FOG     WCI  12
$$

NEZ057>060-069>072-079>082-220000-
SOUTHWEST NEBRASKA

CITY           SKY/WX    TMP DP  RH WIND       PRES   REMARKS
NORTH PLATTE   SNOW      32  29  88 N20       29.75S VSB 1/2 WCI  20
IMPERIAL       SNOW      30  29  96 N30G36    29.74R VSB 1/2 WCI  15
LEXINGTON      SNOW      34  32  93 NE17      29.69S VSB 1/2 WCI  23
MCCOOK         SNOW      32  32 100 NE24G32   29.67F VSB 1/4 WCI  19
OGALLALA       SNOW      31  29  93 N29       29.81S VSB 1/4 WCI  17
$$

NEZ005>010-023>029-035>040-094-220000-
NORTH CENTRAL NEBRASKA

CITY           SKY/WX    TMP DP  RH WIND       PRES   REMARKS
VALENTINE      LGT SNOW  32  29  88 N15G24    29.90R FOG     WCI  22
AINSWORTH      LGT SNOW  32  31  96 NE15      29.87R WCI  22
BROKEN BOW     LGT SNOW  34  31  88 N25G35    29.74R FOG     WCI  21
O`NEILL        LGT RAIN  34  32  93 N20       29.84R WCI  23
ORD            CLOUDY    35  31  85 NE18G39   29.74R WCI  24
THEDFORD       SNOW      32  31  95 N18G30    29.83S VSB 1/2 WCI  20
$$

NEZ041-046>049-061>064-073>077-083>087-220000-
SOUTH CENTRAL NEBRASKA

CITY           SKY/WX    TMP DP  RH WIND       PRES   REMARKS
GRAND ISLAND   LGT RAIN  33  33 100 NE21      29.71R FOG     WCI  21
AURORA         CLOUDY    34  34 100 NE21G26   29.70S FOG     WCI  23
HASTINGS       MIX PCPN  33  32  96 NE18G26   29.69R VSB 1   WCI  22
HEBRON         FOG       40  39  99 NE14      29.65S VSB 1/4 WCI  32
HOLDREGE       LGT RAIN  33  33 100 NE23G31   29.67S WCI  20
KEARNEY        LGT RAIN  33  32  96 NE20      29.70S FOG     WCI  21
YORK           FOG       36  36 100 NE16      29.72R VSB 3/4 WCI  26
$$

NEZ011>018-030>034-042>045-220000-
NORTHEAST NEBRASKA

CITY           SKY/WX    TMP DP  RH WIND       PRES   REMARKS
NORFOLK        CLOUDY    50  29  44 NE21G31   29.76R
ALBION         CLOUDY    38  30  71 NE24G31   29.75R WCI  27
BLAIR          FOG       38  37  97 NE16      29.70S VSB 3/4 WCI  29
COLUMBUS       MIX PCPN  35  34  96 N13       29.76R FOG     WCI  26
FREMONT        CLOUDY    37  37  99 NE7       29.73R FOG     WCI  32
TEKAMAH        CLOUDY    37  35  92 N13       29.74S FOG     WCI  29
WAYNE          CLOUDY    39  29  69 NE24G32   29.78S WCI  28
$$

NEZ050>053-065>068-078-088>093-220000-
SOUTHEAST NEBRASKA

CITY           SKY/WX    TMP DP  RH WIND       PRES   REMARKS
LINCOLN        FOG       38  37  97 N12       29.71R VSB 1/2 WCI  30
OMAHA EPPLEY   CLOUDY    40  39  97 CALM      29.72R FOG
BEATRICE       DRZL/FOG  42  42 100 NE12G18   29.65R VSB 1/4
FALLS CITY     CLOUDY    54  46  74 E5        29.64S
NEBRASKA CITY  FOG       42  42 100 N8        29.67S VSB<1/4
PLATTSMOUTH    SNOW      40  40 100 NE9       29.67F VSB<1/4 WCI  34
$$

NEZ044-045-051>053-067-220000-
OMAHA AREA

CITY           SKY/WX    TMP DP  RH WIND       PRES   REMARKS
OMAHA EPPLEY   CLOUDY    40  39  97 CALM      29.72R FOG
BLAIR          FOG       38  37  97 NE16      29.70S VSB 3/4 WCI  29
FREMONT        CLOUDY    37  37  99 NE7       29.73R FOG     WCI  32
MILLARD        CLOUDY    41  40  95 NE3       29.70S FOG
OFFUTT AFB     CLOUDY    39  39 100 NE14      29.68F FOG     WCI  31
PLATTSMOUTH    SNOW      40  40 100 NE9       29.67F VSB<1/4 WCI  34
WAHOO          CLOUDY    38  37  95 NE13      29.71R FOG     WCI  30
$$



USA.gov is the U.S. government's official web portal to all federal, state and local government web resources and services.